STARLINK-2533 (48294 NORAD) Tracking and Keplerian Element Data

This shows tracking and keplerian element data for the satellite.

Feedback or suggestion? Click here.




ElementValue
Catalog48294
NameSTARLINK-2533
Epoch Orbit197
Epoch Day173.83334491
Epoch Year2021
RAAN257.2581
Inclination53.0519
Eccentricity0.0001685
Argument of Perigee38.7681
Mean Anonmoly340.9516
Mean Motion15.72788953
Decay Rate0.00694791
L11 48294U 21036U 21173.83334491 .00694791 00000-0 46367-2 0 9992
L22 48294 53.0519 257.2581 0001685 38.7681 340.9516 15.72788953 1975

Live tracking and technical data element details for STARLINK-2533 (NORAD 48294). STARLINK-2533 can be tracked NOW for your location showing map with azimuth and elevation plus other details from your city location.

Track the satellite on the map from your city or location and see movement details for azimuth, elevation, latitude, longitude, range, height, and movement on the map or in text.







IsCatalogInMostPopularTable: catalog: 48294, numindb: 18
Update: records affected: 1



GetName: 48294 STARLINK-2533

Hit Count: updated at: Thu, 24 Jun 2021 03:12:44 GMT